Pian Rosa, Italy

6:29 AM CET on December 08, 2016 (GMT +0100)
Pian Rosa

Weather History for LIMH - December, 2013

Change the Weather History Date:

Monday, December 2, 2013

  Actual Average Record
Temperature  
Mean Temperature 20 °F -  
Max Temperature 25 °F 19 °F 28 °F (2015)
Min Temperature 15 °F 9 °F -5 °F (2012)
Degree Days  
Heating Degree Days 45    
Moisture  
Dew Point -13 °F    
Average Humidity 18    
Maximum Humidity 46    
Minimum Humidity 5    
Precipitation  
Precipitation 0.00 in - - ()
Sea Level Pressure  
Sea Level Pressure 30.26 in    
Wind  
Wind Speed 9 mph ()    
Max Wind Speed 25 mph    
Max Gust Speed 33 mph    
Visibility 6.1 miles    
Events      
Averages and records for this station are not official NWS values.
T = Trace of Precipitation, MM = Missing Value Source: Averaged Metar Reports

Daily Weather History Graph

Daily Weather History Graph

Search for Another Location

Airport or City:

Trip Planner

Search our weather history database for the weather conditions in past years. The results will help you decide how hot, cold, wet, or windy it might be!

Date:

Astronomy

Dec. 02, 2013 Rise Set
Actual Time 7:51 AM CET 4:45 PM CET
Civil Twilight 7:17 AM CET 5:19 PM CET
Nautical Twilight 6:40 AM CET 5:56 PM CET
Astronomical Twilight 6:04 AM CET 6:32 PM CET
Moon 6:56 AM CET (12/2) 4:35 PM CET (12/2)
Length of Visible Light 10h 01m
Length of Day
8h 53m
Waning Crescent, 0% of the Moon is Illuminated
Dec 2
Waning Crescent
Dec 3
New
Dec 9
First Quarter
Dec 17
Full
Dec 25
Last Quarter

Hourly Weather History & Observations

Time (CET) Temp. Windchill Dew Point Humidity Pressure Visibility Wind Dir Wind Speed Gust Speed Precip Events Conditions
12:00 AM 18 °F - -22 °F 5%  in 6 mi ENE 11.5 mph - -  
12:55 AM 17.6 °F 10.7 °F -22.0 °F 16% 30.12 in - East 4.6 mph - N/A   Clear
1:00 AM 18 °F - -22 °F 5%  in 6 mi East 4.6 mph - -  
1:55 AM 19.4 °F 10.4 °F -22.0 °F 15% 30.12 in - East 6.9 mph - N/A   Clear
2:00 AM 19 °F - -22 °F 5%  in 6 mi East 6.9 mph - -  
2:55 AM 19.4 °F 10.4 °F -22.0 °F 15% 30.15 in - East 6.9 mph - N/A   Clear
3:55 AM 19.4 °F 14.3 °F -22.0 °F 15% 30.15 in - Variable 3.5 mph - N/A   Clear
4:00 AM 20 °F - -22 °F 5%  in 6 mi 3.5 mph - -  
4:55 AM 17.6 °F 12.3 °F -22.0 °F 16% 30.15 in - Variable 3.5 mph - N/A   Clear
5:00 AM 18 °F - -22 °F 5%  in 6 mi 3.5 mph - -  
5:55 AM 19.4 °F - -22.0 °F 15% 30.18 in - Calm Calm - N/A   Clear
6:00 AM 19 °F - -22 °F 5%  in 6 mi Calm Calm - -  
6:55 AM 19.4 °F 8.6 °F -22.0 °F 15% 30.18 in - East 9.2 mph - N/A   Clear
7:00 AM 19 °F - -22 °F 5%  in 6 mi East 9.2 mph - -  
7:55 AM 17.6 °F 10.7 °F -11.2 °F 27% 30.21 in 6.2 mi East 4.6 mph - N/A   Partly Cloudy
8:55 AM 19.4 °F 12.8 °F 1.4 °F 46% 30.24 in 6.2 mi East 4.6 mph - N/A   Partly Cloudy
9:00 AM 19 °F - 1 °F 30%  in 47 mi East 4.6 mph - -   Scattered Clouds
9:55 AM 19.4 °F 10.4 °F 1.4 °F 46% 30.27 in 6.2 mi South 6.9 mph - N/A   Partly Cloudy
10:00 AM 19 °F - 1 °F 30%  in 47 mi South 6.9 mph - -   Scattered Clouds
10:55 AM 21.2 °F 6.8 °F -2.2 °F 36% 30.27 in 6.2 mi East 17.3 mph - N/A   Partly Cloudy
11:55 AM 23.0 °F 9.2 °F -5.8 °F 28% 30.30 in 6.2 mi East 17.3 mph 28.8 mph N/A   Partly Cloudy
12:00 PM 22 °F - -6 °F 15%  in 47 mi East 17.3 mph - -   Scattered Clouds
12:55 PM 23.0 °F 10.6 °F -7.6 °F 26% 30.30 in - East 13.8 mph - N/A   Clear
1:00 PM 24 °F - -8 °F 12%  in 47 mi East 13.8 mph - -  
1:55 PM 24.8 °F 11.1 °F -0.4 °F 34% 30.30 in - East 18.4 mph 29.9 mph N/A   Clear
2:00 PM 24 °F - -1 °F 19%  in 47 mi East 18.4 mph - -  
2:55 PM 24.8 °F 10.7 °F -4.0 °F 28% 30.30 in - ENE 19.6 mph 33.4 mph N/A   Clear
3:00 PM 25 °F - -5 °F 14%  in 47 mi ENE 19.6 mph - -  
3:55 PM 24.8 °F 11.5 °F -7.6 °F 24% 30.33 in - East 17.3 mph 33.4 mph N/A   Clear
4:00 PM 24 °F - -8 °F 11%  in 47 mi East 17.3 mph - -  
4:55 PM 24.8 °F 9.6 °F -13.0 °F 19% 30.33 in - East 23.0 mph - N/A   Clear
5:55 PM 23.0 °F 8.7 °F -13.0 °F 20% 30.36 in - East 18.4 mph 32.2 mph N/A   Clear
8:55 PM 23.0 °F 6.6 °F -14.8 °F 18% 30.39 in - East 25.3 mph - N/A   Clear
9:00 PM 22 °F - -15 °F 8%  in 6 mi East 25.3 mph - -  
10:55 PM 23.0 °F 8.3 °F -22.0 °F 13% 30.42 in - East 19.6 mph - N/A   Clear
11:00 PM 22 °F - -21 °F 5%  in 6 mi East 19.6 mph - -  
11:55 PM 21.2 °F 6.4 °F -22.0 °F 14% 30.42 in - East 18.4 mph - N/A   Clear